Simultaneous Nadir Overpasses (SNOs) Predictions

Prediction of SNOs between GOES-16 and METOP-B Satellite Orbit:

Table of predicted SNOs for the next 14.0 days since TLE Epoch: 3/26/2022
Index Date Time (GOES-16) GOES-16 Lat,Lon METOP-B Lat,Lon Distance(km) Time Diff (sec)
1 03/28/2022 02:29:45 -0.05, -75.21 -0.04, -75.24 4.05 80
2 03/30/2022 14:27:58 0.05, -75.25 -0.03, -74.80 50.42 80
3 04/01/2022 02:49:39 -0.05, -75.24 -0.95, -79.41 474.08 80
4 04/02/2022 02:26:20 -0.05, -75.26 0.14, -74.41 96.32 80
5 04/03/2022 14:47:52 0.05, -75.30 0.89, -78.97 418.56 80
6 04/04/2022 14:24:33 0.05, -75.32 -0.26, -73.98 152.11 80
7 04/06/2022 02:46:14 -0.05, -75.32 -0.78, -78.58 371.50 80
8 04/07/2022 02:22:55 -0.04, -75.34 0.37, -73.59 199.29 80
9 04/08/2022 14:44:27 0.04, -75.39 0.66, -78.15 315.12 80
